Weather observations for the past three days for
Winona, Winona Municipal Airport-Max Conrad Field
Imperial (Metric)
Date Time (cdt) Wind (mph) Vis. (mi.) Weather Sky Cond. Temperature (ºF) Relative Humidity Wind Chill (°F) Heat Index (°F) Pressure Precipitation (in)
Air Dwpt 6 hour altimeter (in) sea level (mb) 1 hr 3 hr 6 hr
Max. Min.
04 10:32 W 14 10.00 Fair CLR 68 39.2 35% 29.46 0.0
04 10:04 W 12 10.00 Mostly Cloudy BKN010 66.2 39.2 37% 29.46 0.0
04 09:44 W 10 10.00 Mostly Cloudy BKN110 66.2 37.4 35% 29.46 0.0
04 09:22 W 12 10.00 Partly Cloudy SCT110 68 37.4 33% 29.45 0.0
04 09:03 W 8 10.00 Fair CLR 66.2 37.4 35% 29.45 0.0
04 08:44 SW 8 10.00 Fair CLR 64.4 35.6 34% 29.45 0.0
04 08:04 SW 13 10.00 Fair CLR 60.8 33.8 36% 29.46 0.0
04 07:46 SW 10 10.00 Fair CLR 59 33.8 39% 29.46 0.0
04 07:30 SW 12 10.00 Fair CLR 57.2 33.8 41% 29.46 0.0
04 07:03 SW 13 10.00 Fair CLR 57.2 32 39% 29.46 0.0
04 06:40 SW 15 10.00 Fair CLR 55.4 32 41% 29.47 0.0
04 06:21 SW 10 10.00 Fair CLR 55.4 32 41% 29.47 0.0
04 06:03 SW 10 10.00 Fair CLR 57.2 32 39% 29.47 0.0
04 05:42 SW 9 10.00 Fair CLR 57.2 32 39% 29.48 0.0
04 05:27 SW 7 10.00 Fair CLR 57.2 32 39% 29.49 0.0
04 05:09 SW 7 10.00 Fair CLR 55.4 32 41% 29.5 0.0
04 04:50 SW 8 10.00 Fair CLR 55.4 32 41% 29.5 0.0
04 04:22 SW 9 10.00 Fair CLR 57.2 32 39% 29.52 0.0
04 04:02 SW 10 10.00 Fair CLR 57.2 32 39% 29.52 0.0
04 03:44 SW 7 10.00 Fair CLR 57.2 32 39% 29.54 0.0
04 03:24 SW 8 10.00 Fair CLR 55.4 32 41% 29.54 0.0
04 03:06 SW 5 10.00 Fair CLR 53.6 33.8 47% 29.55 0.0
04 02:44 Calm 10.00 Fair CLR 48.2 39.2 71% 29.57 0.0
04 02:24 Calm 10.00 Fair CLR 48.2 41 76% 29.57 0.0
04 02:09 Calm 10.00 Fair CLR 44.6 39.2 81% 29.58 0.0
04 01:51 Calm 10.00 Fair CLR 48.2 39.2 71% 29.59 0.0
04 01:22 Calm 10.00 Fair CLR 46.4 37.4 71% 29.6 0.0
04 01:04 Calm 10.00 Fair CLR 46.4 37.4 71% 29.61 0.0
04 00:32 Calm 10.00 Fair CLR 48.2 37.4 66% 29.62 0.0
04 00:04 Calm 10.00 Fair CLR 48.2 39.2 71% 29.63 0.0
03 23:44 Calm 10.00 Fair CLR 50 42.8 76% 29.64 0.0
03 23:26 Calm 10.00 Fair CLR 50 39.2 67% 29.65 0.0
03 23:04 Calm 10.00 Fair CLR 51.8 35.6 54% 0 0.0
03 22:32 Calm 10.00 Fair CLR 50 37.4 62% 29.66 0.0
03 22:03 Calm 10.00 Fair CLR 53.6 37.4 54% 29.67 0.0
03 21:44 Calm 10.00 Fair CLR 57.2 32 39% 29.67 0.0
03 21:11 SW 3 10.00 Fair CLR 59 35.6 42% 29.67 0.0
03 20:47 Calm 10.00 Fair CLR 62.6 30.2 30% 29.67 0.0
03 20:20 W 5 10.00 Fair CLR 66.2 28.4 24% 29.66 0.0
03 20:01 W 3 10.00 Fair CLR 68 28.4 23% 29.66 0.0
03 19:41 W 6 10.00 Fair CLR 68 28.4 23% 29.66 0.0
03 19:22 NW 9 10.00 Fair CLR 68 26.6 21% 29.66 0.0
03 18:48 W 10 10.00 Fair CLR 69.8 28.4 21% 29.65 0.0
03 18:32 NW 12 10.00 Fair CLR 69.8 30.2 23% 29.65 0.0
03 17:37 NW 12 10.00 Fair CLR 71.6 37.4 29% 29.65 0.0
03 16:41 NW 16 10.00 Fair CLR 71.6 35.6 27% 29.65 0.0
03 16:21 NW 15 10.00 Fair CLR 71.6 35.6 27% 29.65 0.0
03 16:04 NW 15 10.00 Fair CLR 71.6 35.6 27% 29.66 0.0
03 15:42 NW 17 10.00 Fair CLR 71.6 35.6 27% 29.67 0.0
03 15:24 N 15 10.00 Fair CLR 71.6 37.4 29% 0 0.0
03 15:04 N 13 10.00 Fair CLR 71.6 37.4 29% 29.67 0.0
03 14:47 NW 14 10.00 Fair CLR 71.6 39.2 31% 29.67 0.0
03 14:30 NW 15 10.00 Fair CLR 69.8 39.2 33% 29.67 0.0
03 14:03 NW 14 10.00 Fair CLR 69.8 37.4 31% 29.67 0.0
03 13:42 NW 10 10.00 Fair CLR 69.8 39.2 33% 29.68 0.0
03 13:23 N 10 10.00 Fair CLR 69.8 41 35% 29.68 0.0
03 13:05 NW 9 10.00 Fair CLR 69.8 39.2 33% 29.68 0.0
03 12:45 W 6 10.00 Fair CLR 68 37.4 33% 29.69 0.0
03 12:28 NW 7 10.00 Fair CLR 68 39.2 35% 29.69 0.0
03 12:00 W 5 10.00 Fair CLR 66.2 37.4 35% 29.7 0.0
03 11:41 W 6 10.00 Fair CLR 66.2 37.4 35% 29.7 0.0
03 11:24 W 5 10.00 Fair CLR 66.2 37.4 35% 29.7 0.0
03 11:05 W 6 10.00 Fair CLR 64.4 35.6 34% 29.7 0.0
03 10:47 SW 7 10.00 Fair CLR 64.4 35.6 34% 29.7 0.0
03 10:24 SW 8 10.00 Fair CLR 62.6 33.8 34% 29.7 0.0
03 10:05 SW 10 10.00 Fair CLR 62.6 33.8 34% 29.7 0.0
03 09:47 SW 7 10.00 Fair CLR 62.6 33.8 34% 0 0.0
03 09:31 SW 6 1.00 Fair CLR 62.6 33.8 34% 29.71 0.0
03 09:01 W 12 10.00 Fair CLR 60.8 32 34% 29.71 0.0
03 08:45 SW 10 10.00 Fair CLR 59 32 36% 29.71 0.0
03 08:30 SW 9 10.00 Fair CLR 59 32 36% 29.71 0.0
03 08:01 SW 9 10.00 Partly Cloudy SCT100 57.2 33.8 41% 0 0.0
03 07:42 SW 10 10.00 Partly Cloudy SCT100 57.2 33.8 41% 0 0.0
03 07:25 SW 10 10.00 Fair CLR 57.2 33.8 41% 0 0.0
03 07:05 SW 6 10.00 Partly Cloudy SCT110 57.2 33.8 41% 0 0.0
03 06:06 S 6 10.00 Partly Cloudy SCT120 55.4 32 41% 29.71 0.0
03 05:50 S 6 10.00 Fair CLR 57.2 32 39% 29.71 0.0
03 05:25 SW 14 10.00 Mostly Cloudy BKN110 57.2 32 39% 29.72 0.0
03 04:53 SW 12 10.00 Overcast SCT070 SCT085 OVC110 57.2 32 39% 29.74 0.0
03 04:22 SW 14 10.00 Partly Cloudy SCT110 57.2 32 39% 0 0.0
03 04:02 SW 12 10.00 Partly Cloudy SCT080 SCT010 SCT010 55.4 32 41% 29.76 0.0
03 03:42 SW 10 10.00 Overcast SCT080 OVC110 55.4 30.2 38% 29.77 0.0
03 03:22 SW 8 10.00 Mostly Cloudy BKN110 55.4 30.2 38% 29.79 0.0
03 03:07 SW 8 10.00 Fair CLR 55.4 28.4 36% 29.79 0.0
03 02:48 SW 7 10.00 Fair CLR 55.4 28.4 36% 29.79 0.0
03 02:31 SW 8 10.00 Fair CLR 55.4 28.4 36% 29.8 0.0
03 02:15 SW 9 10.00 Partly Cloudy SCT120 55.4 30.2 38% 29.8 0.0
03 01:42 SW 3 10.00 Overcast SCT070 SCT085 OVC010 55.4 30.2 38% 29.82 0.0
03 01:22 SW 5 10.00 Overcast SCT100 OVC120 57.2 28.4 33% 29.82 0.0
03 01:03 SW 6 10.00 Overcast OVC010 55.4 30.2 38% 29.82 0.0
03 00:42 SW 3 10.00 Overcast OVC090 57.2 30.2 36% 29.84 0.0
03 00:07 Calm 10.00 Overcast SCT100 OVC120 57.2 30.2 36% 29.85 0.0
02 23:50 W 5 10.00 Mostly Cloudy BKN120 57.2 28.4 33% 29.85 0.0
02 23:20 SW 6 10.00 Fair CLR 59 28.4 31% 29.85 0.0
02 23:00 SW 6 10.00 Partly Cloudy SCT010 59 28.4 31% 29.86 0.0
02 22:41 SW 7 10.00 Mostly Cloudy BKN100 59 28.4 31% 29.86 0.0
02 22:25 SW 7 10.00 Partly Cloudy SCT010 SCT010 60.8 28.4 29% 29.87 0.0
02 22:06 SW 5 10.00 Mostly Cloudy BKN100 60.8 28.4 29% 29.87 0.0
02 21:48 SW 8 10.00 Mostly Cloudy BKN100 BKN120 60.8 28.4 29% 29.88 0.0
02 21:02 W 7 10.00 Overcast OVC100 60.8 30.2 31% 29.88 0.0
02 20:41 SW 5 10.00 Mostly Cloudy BKN110 60.8 28.4 29% 29.88 0.0
02 20:23 W 3 10.00 Partly Cloudy SCT120 62.6 28.4 27% 29.88 0.0
02 20:03 SW 8 10.00 Partly Cloudy SCT075 SCT090 62.6 28.4 27% 29.88 0.0
02 19:48 W 8 10.00 Overcast OVC090 62.6 28.4 27% 29.88 0.0
02 19:29 SW 3 10.00 Overcast BKN090 OVC110 62.6 28.4 27% 29.89 0.0
02 19:04 W 3 10.00 Mostly Cloudy BKN110 62.6 28.4 27% 29.9 0.0
02 18:44 W 3 10.00 Mostly Cloudy BKN010 62.6 28.4 27% 29.9 0.0
02 18:26 W 6 10.00 Mostly Cloudy BKN110 62.6 26.6 25% 29.91 0.0
02 18:05 NW 8 10.00 Partly Cloudy SCT110 62.6 28.4 27% 29.91 0.0
02 17:46 W 5 10.00 Partly Cloudy SCT010 62.6 26.6 25% 29.92 0.0
02 17:27 W 8 10.00 Fair CLR 62.6 26.6 25% 29.92 0.0
02 17:06 W 10 10.00 Fair CLR 62.6 24.8 24% 29.92 0.0
02 16:45 NW 12 10.00 Partly Cloudy SCT090 62.6 26.6 25% 29.93 0.0
02 16:28 SW 9 10.00 Partly Cloudy SCT090 62.6 26.6 25% 29.94 0.0
02 16:09 SW 8 10.00 Partly Cloudy SCT990 64.4 26.6 24% 29.95 0.0
02 15:52 W 5 10.00 Partly Cloudy SCT090 62.6 24.8 24% 29.96 0.0
02 15:21 NW 10 10.00 Partly Cloudy SCT090 62.6 24.8 24% 29.97 0.0
02 15:04 W 10 10.00 Partly Cloudy SCT090 60.8 23 23% 29.98 0.0
02 14:42 SW 7 10.00 Fair CLR 60.8 28.4 29% 29.99 0.0
02 14:27 SW 10 10.00 Fair CLR 60.8 24.8 25% 29.99 0.0
02 14:09 W 6 10.00 Fair CLR 59 23 25% 30.01 0.0
02 13:44 NW 7 10.00 Fair CLR 59 24.8 27% 30.02 0.0
02 13:23 W 9 10.00 Fair CLR 59 24.8 27% 30.03 0.0
02 13:02 NW 5 10.00 Fair CLR 59 24.8 27% 30.03 0.0
02 12:45 W 7 10.00 Partly Cloudy SCT080 59 23 25% 30.04 0.0
02 12:29 NW 13 10.00 Partly Cloudy SCT080 59 24.8 27% 30.04 0.0
02 12:01 W 5 10.00 Partly Cloudy SCT080 57.2 24.8 29% 30.06 0.0
02 11:44 W 9 10.00 Partly Cloudy SCT070 57.2 23 27% 30.06 0.0
02 10:53 W 5 10.00 Partly Cloudy SCT070 57.2 26.6 31% 30.07 0.0
02 10:21 N 7 10.00 Fair CLR 55.4 30.2 38% 30.08 0.0
02 10:02 N 5 10.00 Fair CLR 53.6 32 44% 30.08 0.0
02 09:44 W 7 10.00 Fair CLR 53.6 30.2 41% 30.09 0.0
02 09:23 NW 8 10.00 Fair CLR 51.8 30.2 44% 30.09 0.0
02 09:06 NW 7 10.00 Fair CLR 50 30.2 47% 48 30.1 0.0
02 08:33 Calm 10.00 Fair CLR 44.6 32 61% 30.1 0.0
02 08:02 Calm 10.00 Fair CLR 41 33.8 76% 30.1 0.0
02 07:43 Calm 10.00 Fair CLR 39.2 32 75% 30.1 0.0
02 07:23 Calm 10.00 Fair CLR 35.6 32 87% 30.1 0.0
02 07:02 NW 3 10.00 Fair CLR 33.8 30.2 87% 30.1 0.0
02 06:42 NW 5 10.00 Fair CLR 32 28.4 87% 28 30.1 0.0
02 06:22 NW 3 10.00 Fair CLR 32 28.4 87% 30.1 0.0
02 06:03 Calm 10.00 Fair CLR 30.2 28.4 93% 30.1 0.0
02 05:43 NW 3 10.00 Fair CLR 30.2 28.4 93% 30.1 0.0
02 05:23 Calm 10.00 Fair CLR 32 30.2 93% 30.1 0.0
02 05:06 Calm 10.00 Fair CLR 32 28.4 87% 30.1 0.0
02 04:49 Calm 10.00 Fair CLR 32 28.4 87% 30.1 0.0
02 04:20 Calm 10.00 Fair CLR 32 28.4 87% 30.1 0.0
02 04:00 Calm 10.00 Fair CLR 32 30.2 93% 30.1 0.0
02 03:42 Calm 10.00 Fair CLR 32 28.4 87% 30.1 0.0
02 03:22 NW 3 10.00 Fair CLR 33.8 30.2 87% 30.1 0.0
02 03:06 Calm 10.00 Partly Cloudy SCT095 33.8 28.4 81% 30.1 0.0
02 02:32 Calm 10.00 Partly Cloudy SCT095 32 26.6 80% 30.1 0.0
02 02:04 Calm 10.00 Fair CLR 33.8 28.4 81% 30.1 0.0
02 01:43 Calm 10.00 Fair CLR 35.6 28.4 75% 30.1 0.0
02 01:23 NW 3 10.00 Fair CLR 35.6 30.2 81% 30.1 0.0
02 01:04 Calm 10.00 Fair CLR 35.6 30.2 81% 30.1 0.0
02 00:44 Calm 10.00 Fair CLR 37.4 30.2 75% 30.1 0.0
02 00:25 Calm 10.00 Fair CLR 37.4 30.2 75% 30.1 0.0
02 00:08 Calm 10.00 Fair CLR 37.4 30.2 75% 30.1 0.0
01 23:41 NW 3 10.00 Fair CLR 37.4 28.4 70% 30.1 0.0
01 23:17 Calm 10.00 Fair CLR 41 28.4 61% 30.1 0.0
01 22:56 Calm 10.00 Fair CLR 41 28.4 61% 30.1 0.0
01 21:51 Calm 10.00 Fair CLR 42.8 26.6 53% 30.1 0.0
01 21:23 Calm 10.00 Fair CLR 44.6 26.6 49% 30.09 0.0
01 21:03 Calm 10.00 Partly Cloudy SCT090 46.4 23 40% 30.09 0.0
01 20:42 Calm 10.00 Mostly Cloudy BKN090 48.2 21.2 34% 30.08 0.0
01 20:25 Calm 10.00 Mostly Cloudy BKN090 48.2 21.2 34% 30.08 0.0
01 20:05 Calm 10.00 Mostly Cloudy BKN090 50 19.4 30% 30.07 0.0
01 19:32 N 3 10.00 Overcast OVC085 50 21.2 32% 30.07 0.0
01 19:05 NW 5 10.00 Overcast OVC085 50 21.2 32% 49 30.06 0.0
01 18:49 NW 6 10.00 Partly Cloudy SCT085 50 21.2 32% 48 30.06 0.0
01 18:23 N 6 10.00 Partly Cloudy SCT075 50 21.2 32% 48 30.06 0.0
01 18:06 NW 9 10.00 Mostly Cloudy BKN075 50 21.2 32% 47 30.06 0.0
01 17:46 NW 9 10.00 Partly Cloudy SCT075 50 19.4 30% 47 30.06 0.0
01 17:26 NW 10 10.00 Mostly Cloudy BKN075 53.6 21.2 28% 30.06 0.0
01 17:08 NW 8 10.00 Partly Cloudy SCT075 50 21.2 32% 47 30.06 0.0
01 16:47 NW 10 10.00 Partly Cloudy SCT075 53.6 21.2 28% 30.05 0.0
01 16:29 NW 13 10.00 Mostly Cloudy BKN075 53.6 21.2 28% 30.05 0.0
01 16:07 N 10 10.00 Mostly Cloudy BKN075 53.6 21.2 28% 30.05 0.0
01 15:50 NW 8 10.00 Partly Cloudy SCT075 53.6 23 30% 30.06 0.0
01 15:23 N 7 10.00 Partly Cloudy SCT075 53.6 23 30% 30.06 0.0
01 15:02 E 6 10.00 Partly Cloudy SCT075 51.8 21.2 30% 30.06 0.0
01 14:43 NW 7 10.00 Partly Cloudy SCT075 53.6 21.2 28% 30.06 0.0
01 14:26 NW 9 10.00 Mostly Cloudy BKN075 53.6 23 30% 30.06 0.0
01 13:54 N 7 10.00 Partly Cloudy SCT075 51.8 21.2 30% 30.06 0.0
01 13:27 NW 7 10.00 Partly Cloudy SCT075 51.8 21.2 30% 30.06 0.0
01 13:10 NW 9 10.00 Partly Cloudy SCT065 51.8 21.2 30% 30.06 0.0
01 12:49 N 3 10.00 Partly Cloudy SCT065 50 21.2 32% 30.07 0.0
01 12:32 N 9 10.00 Partly Cloudy SCT065 51.8 21.2 30% 30.07 0.0
01 12:05 N 9 10.00 Partly Cloudy SCT065 50 21.2 32% 47 30.07 0.0
01 11:49 N 8 10.00 Partly Cloudy SCT065 50 23 35% 47 30.07 0.0
01 11:27 N 9 10.00 Fair CLR 48.2 23 37% 45 30.07 0.0
01 11:06 N 10 10.00 Fair CLR 48.2 24.8 40% 44 30.07 0.0
01 10:47 N 8 10.00 Fair CLR 48.2 26.6 43% 45 30.07 0.0
Date Time (cdt) Wind (mph) Vis. (mi.) Weather Sky Cond. Air Dwpt Max. Min. Relative Humidity Wind Chill (°F) Heat Index (°F) altimeter (in) sea level (mb) 1 hr 3 hr 6 hr
6 hour
Temperature (ºF) Pressure Precipitation (in)